Tracking 19817 objects as of 20-Aug-2019
HD Live streaming from Space Station
objects crossing your sky now

COSMOS 1464

Track COSMOS 1464 now!
10-day predictions
COSMOS 1464 is classified as:


NORAD ID: 14084
Int'l Code: 1983-048A
Perigee: 967.9 km
Apogee: 1,013.6 km
Inclination: 82.9 °
Period: 104.8 minutes
Semi major axis: 7361 km
RCS: 3.4425 m2 (large)
Launch date: May 24, 1983
Source: Commonwealth of Independent States (former USSR) (CIS)
Launch site: PLESETSK MISSILE AND SPACE COMPLEX (PKMTR)
aabbcc
Your satellite tracking list
Your tracking list is empty




NASA's NSSDC Master Catalog

Two Line Element Set (TLE):
1 14084U 83048A   19231.56074362  .00000017  00000-0  18785-5 0  9991
2 14084  82.9423 250.3527 0031037 139.0065 332.5081 13.74455718817585
Source of the keplerian elements: AFSPC